Hamilton Island, Queensland

8:37 AM AEST on September 29, 2016 (GMT +1000)
Hamilton Island

Weather History for 94368 - July, 2013

Change the Weather History Date:

Monday, July 22, 2013

  Actual Average Record
Temperature  
Mean Temperature 70 °F -  
Max Temperature 73 °F - - ()
Min Temperature 67 °F - - ()
Cooling Degree Days 5    
Growing Degree Days 20 (Base 50)    
Moisture  
Dew Point 68 °F    
Average Humidity 93    
Maximum Humidity 100    
Minimum Humidity 83    
Precipitation  
Precipitation 0.01 in - - ()
Sea Level Pressure  
Sea Level Pressure 30.08 in    
Wind  
Wind Speed 10 mph ()    
Max Wind Speed 15 mph    
Max Gust Speed -    
T = Trace of Precipitation, MM = Missing Value Source: Averaged Metar Reports

Daily Weather History Graph

Daily Weather History Graph

Search for Another Location

Airport or City:

Trip Planner

Search our weather history database for the weather conditions in past years. The results will help you decide how hot, cold, wet, or windy it might be!

Date:

Astronomy

Jul. 22, 2013 Rise Set
Actual Time 6:38 AM AEST 5:43 PM AEST
Civil Twilight 6:14 AM AEST 6:06 PM AEST
Nautical Twilight 5:47 AM AEST 6:33 PM AEST
Astronomical Twilight 5:21 AM AEST 7:00 PM AEST
Moon 5:14 PM AEST (7/22) 5:38 AM AEST (7/22)
Length of Visible Light 11h 51m
Length of Day
11h 04m
Waxing Gibbous, 99% of the Moon is Illuminated
Jul 22
Waxing Gibbous
Jul 23
Full
Jul 30
Last Quarter
Aug 7
New
Aug 14
First Quarter

Hourly Weather History & Observations

Time (AEST) Temp. Dew Point Humidity Pressure Visibility Wind Dir Wind Speed Gust Speed Precip Events Conditions
12:00 AM 69 °F 68 °F 97% 30.07 in - SE 8.1 mph - -  
12:00 AM 69.8 °F 68.0 °F 94% 30.06 in - SE 8.1 mph - N/A   Unknown
12:30 AM 69.8 °F 68.0 °F 94% 30.06 in - SE 8.1 mph - N/A   Unknown
1:00 AM 69.8 °F 68.0 °F 94% 30.04 in - SE 8.1 mph - N/A   Unknown
1:30 AM 69.8 °F 68.0 °F 94% 30.04 in - SSE 8.1 mph - N/A   Unknown
2:00 AM 69.8 °F 69.8 °F 100% 30.04 in - SSE 11.5 mph - N/A   Unknown
2:30 AM - - N/A% 30.04 in - South 11.5 mph - N/A   Unknown
3:00 AM 68 °F - % 30.02 in - SSE 12.7 mph - -  
3:00 AM - - N/A% 30.01 in - SSE 12.7 mph - N/A   Unknown
3:30 AM - - N/A% 30.01 in - SSE 12.7 mph - N/A   Unknown
4:00 AM - - N/A% 30.01 in - SSE 12.7 mph - N/A   Unknown
4:30 AM - - N/A% 30.01 in - SSE 15.0 mph - N/A   Unknown
5:00 AM - - N/A% 30.01 in - SSE 15.0 mph - N/A   Unknown
5:30 AM 68.0 °F 68.0 °F 100% 30.04 in - SSE 15.0 mph - N/A   Unknown
6:00 AM 68.0 °F 68.0 °F 100% 30.04 in - SSE 13.8 mph - N/A   Unknown
6:30 AM 68.0 °F 68.0 °F 100% 30.04 in - SE 15.0 mph - N/A   Unknown
7:00 AM - - N/A% 30.06 in - SSE 13.8 mph - N/A   Unknown
7:30 AM - - N/A% 30.09 in - SSE 13.8 mph - N/A   Unknown
8:00 AM - - N/A% 30.09 in - SSE 11.5 mph - N/A   Unknown
8:30 AM 69.8 °F 69.8 °F 100% 30.12 in - SSE 12.7 mph - N/A   Unknown
9:00 AM 71 °F 69 °F 90% 30.14 in - SSE 13.8 mph - -  
9:00 AM 69.8 °F 68.0 °F 94% 30.12 in - SSE 13.8 mph - N/A   Unknown
9:30 AM 71.6 °F 68.0 °F 88% 30.12 in - SSE 12.7 mph - N/A   Unknown
10:00 AM 71.6 °F 69.8 °F 94% 30.12 in - SSE 12.7 mph - N/A   Unknown
10:30 AM 71.6 °F 69.8 °F 94% 30.12 in - SSE 12.7 mph - N/A   Unknown
11:00 AM 73.4 °F 69.8 °F 88% 30.12 in - SSE 10.4 mph - N/A   Unknown
11:30 AM 71.6 °F 68.0 °F 88% 30.12 in - SSE 12.7 mph - N/A   Unknown
12:00 PM 72 °F 69 °F 88% 30.12 in - SSE 12.7 mph - -  
12:00 PM 71.6 °F 69.8 °F 94% 30.09 in - SSE 12.7 mph - N/A   Unknown
12:30 PM 71.6 °F 69.8 °F 94% 30.09 in - SSE 13.8 mph - N/A   Unknown
1:00 PM 73.4 °F 69.8 °F 88% 30.09 in - SSE 11.5 mph - N/A   Unknown
1:30 PM 73.4 °F 69.8 °F 88% 30.06 in - SSE 13.8 mph - N/A   Unknown
2:00 PM 71.6 °F 68.0 °F 88% 30.06 in - SSE 11.5 mph - N/A   Unknown
2:30 PM 71.6 °F 68.0 °F 88% 30.06 in - SSE 11.5 mph - N/A   Unknown
3:00 PM 71 °F 67 °F 83% 30.06 in - SSE 11.5 mph - -  
3:00 PM 71.6 °F 66.2 °F 83% 30.04 in - SSE 11.5 mph - N/A   Unknown
3:30 PM 71.6 °F 68.0 °F 88% 30.04 in - SSE 11.5 mph - N/A   Unknown
4:00 PM 69.8 °F 68.0 °F 94% 30.06 in - SSE 12.7 mph - N/A   Unknown
4:30 PM 69.8 °F 68.0 °F 94% 30.06 in - SSE 10.4 mph - N/A   Unknown
5:00 PM 69.8 °F 66.2 °F 88% 30.06 in - SSE 12.7 mph - N/A   Unknown
5:30 PM 69.8 °F 66.2 °F 88% 30.06 in - SSE 11.5 mph - N/A   Unknown
6:00 PM 69.8 °F 68.0 °F 94% 30.06 in - SSE 11.5 mph - N/A   Unknown
6:30 PM 69.8 °F 68.0 °F 94% 30.09 in - SSE 11.5 mph - N/A   Unknown
7:00 PM 69.8 °F 68.0 °F 94% 30.09 in - SSE 11.5 mph - N/A   Unknown
7:30 PM 69.8 °F 68.0 °F 94% 30.12 in - SSE 11.5 mph - N/A   Unknown
8:00 PM 69.8 °F 68.0 °F 94% 30.12 in - SE 10.4 mph - N/A   Unknown
8:30 PM 69.8 °F 68.0 °F 94% 30.12 in - SE 8.1 mph - N/A   Unknown
9:00 PM 69 °F 68 °F 94% 30.13 in - SE 9.2 mph - -  
9:00 PM 69.8 °F 68.0 °F 94% 30.12 in - SE 9.2 mph - N/A   Unknown
9:30 PM 68.0 °F 68.0 °F 100% 30.12 in - ESE 9.2 mph - N/A   Unknown
10:00 PM 69.8 °F 68.0 °F 94% 30.12 in - ESE 9.2 mph - N/A   Unknown
10:30 PM 68.0 °F 68.0 °F 100% 30.12 in - SE 9.2 mph - N/A   Unknown
11:00 PM 68.0 °F 68.0 °F 100% 30.12 in - SE 8.1 mph - N/A   Unknown
11:30 PM 68.0 °F 68.0 °F 100% 30.09 in - SSE 10.4 mph - N/A   Unknown